THY80E LTFM-LTBJ

Flight info

Callsign THY80E
Flight time 0h 48m
Altitude 35000
Route IVGUS UM19 OVZOK
Aircraft B77W/H-SDE1E2E3FGHIJ2J3J4J5M1RWXY/LB1D1

Departure

Time 2026-05-05 21:09
Airport İstanbul Airport (LTFM)

Arrival

Time 2026-05-05 21:57
Airport Adnan Menderes International Airport (LTBJ)
Time Latitude Longitude Altitude Speed Heading
2026-05-05 20:51 41.26784 28.74744 334 ft 0 kts 179°
2026-05-05 21:00 41.26787 28.74744 333 ft 3 kts 179°
2026-05-05 21:00 41.26813 28.74744 335 ft 4 kts 188°
2026-05-05 21:00 41.26834 28.74753 335 ft 2 kts 215°
2026-05-05 21:01 41.26851 28.74767 333 ft 4 kts 198°
2026-05-05 21:01 41.26870 28.74771 335 ft 4 kts 159°
2026-05-05 21:01 41.26884 28.74760 333 ft 4 kts 115°
2026-05-05 21:01 41.26887 28.74732 333 ft 4 kts 89°
2026-05-05 21:02 41.26887 28.74724 334 ft 1 kts 89°
2026-05-05 21:04 41.26887 28.74731 336 ft 3 kts 89°
2026-05-05 21:04 41.26888 28.74781 339 ft 8 kts 89°
2026-05-05 21:05 41.26889 28.74874 339 ft 12 kts 89°
2026-05-05 21:05 41.26891 28.75005 339 ft 16 kts 89°
2026-05-05 21:05 41.26893 28.75167 339 ft 18 kts 89°
2026-05-05 21:05 41.26895 28.75294 339 ft 10 kts 89°
2026-05-05 21:06 41.26869 28.75370 339 ft 10 kts 154°
2026-05-05 21:06 41.26789 28.75379 335 ft 13 kts 178°
2026-05-05 21:06 41.26685 28.75381 338 ft 16 kts 179°
2026-05-05 21:06 41.26561 28.75384 333 ft 19 kts 179°
2026-05-05 21:07 41.26427 28.75388 335 ft 19 kts 179°
2026-05-05 21:07 41.26304 28.75391 339 ft 10 kts 179°
2026-05-05 21:07 41.26253 28.75446 335 ft 10 kts 105°
2026-05-05 21:07 41.26250 28.75544 339 ft 11 kts 89°
2026-05-05 21:08 41.26258 28.75641 335 ft 11 kts 59°
2026-05-05 21:08 41.26328 28.75666 337 ft 11 kts 358°
2026-05-05 21:08 41.26463 28.75663 334 ft 36 kts 360°
2026-05-05 21:08 41.26958 28.75656 337 ft 112 kts 359°
2026-05-05 21:09 41.27984 28.75635 380 ft 175 kts 359°
2026-05-05 21:09 41.29237 28.75587 1036 ft 184 kts 360°
2026-05-05 21:09 41.30486 28.76015 1791 ft 192 kts 29°
2026-05-05 21:09 41.31600 28.77115 2327 ft 210 kts 34°
2026-05-05 21:10 41.32905 28.78285 2655 ft 241 kts 30°
2026-05-05 21:10 41.34352 28.79449 3609 ft 245 kts 28°
2026-05-05 21:10 41.35833 28.80587 4664 ft 247 kts 27°
2026-05-05 21:10 41.37233 28.81908 5520 ft 253 kts 45°
2026-05-05 21:11 41.38133 28.83956 6492 ft 262 kts 65°
2026-05-05 21:11 41.38450 28.86340 7382 ft 271 kts 84°
2026-05-05 21:11 41.38444 28.88880 8270 ft 277 kts 86°
2026-05-05 21:11 41.38115 28.91434 9014 ft 291 kts 110°
2026-05-05 21:12 41.36888 28.93622 9904 ft 303 kts 139°
2026-05-05 21:12 41.34959 28.94827 10615 ft 319 kts 169°
2026-05-05 21:12 41.32648 28.94975 10883 ft 347 kts 181°
2026-05-05 21:12 41.30133 28.94898 11140 ft 376 kts 180°
2026-05-05 21:13 41.27474 28.94872 11895 ft 387 kts 180°
2026-05-05 21:13 41.24788 28.94438 12737 ft 394 kts 198°
2026-05-05 21:13 41.22320 28.92846 13690 ft 397 kts 211°
2026-05-05 21:13 41.19893 28.91003 14563 ft 406 kts 211°
2026-05-05 21:14 41.17421 28.89172 15675 ft 408 kts 210°
2026-05-05 21:14 41.14929 28.87355 16776 ft 411 kts 210°
2026-05-05 21:14 41.12398 28.85525 17792 ft 417 kts 210°
2026-05-05 21:14 41.09834 28.83680 18689 ft 422 kts 209°
2026-05-05 21:15 41.07247 28.81809 19390 ft 425 kts 211°
2026-05-05 21:15 41.04766 28.79640 20012 ft 429 kts 218°
2026-05-05 21:15 41.02412 28.77204 20690 ft 433 kts 220°
2026-05-05 21:15 41.00057 28.74682 21383 ft 436 kts 220°
2026-05-05 21:16 40.97664 28.72191 22087 ft 439 kts 218°
2026-05-05 21:16 40.95223 28.69729 22748 ft 443 kts 218°
2026-05-05 21:16 40.92829 28.67189 23290 ft 442 kts 226°
2026-05-05 21:16 40.91021 28.63890 23701 ft 447 kts 245°
2026-05-05 21:17 40.90047 28.60016 24198 ft 443 kts 261°
2026-05-05 21:17 40.89505 28.55986 24675 ft 447 kts 262°
2026-05-05 21:17 40.88971 28.51912 25159 ft 451 kts 262°
2026-05-05 21:17 40.88408 28.47830 25663 ft 454 kts 261°
2026-05-05 21:18 40.87810 28.43709 26168 ft 457 kts 261°
2026-05-05 21:18 40.87195 28.39575 26640 ft 460 kts 261°
2026-05-05 21:18 40.86572 28.35414 27120 ft 463 kts 260°
2026-05-05 21:18 40.85946 28.31227 27561 ft 466 kts 260°
2026-05-05 21:19 40.85316 28.27013 28000 ft 469 kts 260°
2026-05-05 21:19 40.84690 28.22831 28495 ft 470 kts 260°
2026-05-05 21:19 40.84055 28.18597 29068 ft 470 kts 260°
2026-05-05 21:19 40.83415 28.14347 29064 ft 473 kts 260°
2026-05-05 21:20 40.82134 28.05890 29070 ft 467 kts 260°
2026-05-05 21:20 40.80856 27.97478 29086 ft 468 kts 260°
2026-05-05 21:21 40.79572 27.89047 29082 ft 469 kts 261°
2026-05-05 21:21 40.79090 27.80534 29062 ft 464 kts 265°
2026-05-05 21:22 40.78323 27.76395 29076 ft 468 kts 248°
2026-05-05 21:22 40.76641 27.72727 29066 ft 472 kts 230°
2026-05-05 21:22 40.74144 27.69928 29075 ft 475 kts 211°
2026-05-05 21:22 40.71222 27.67939 29093 ft 473 kts 207°
2026-05-05 21:23 40.65355 27.63903 29078 ft 478 kts 209°
2026-05-05 21:23 40.59490 27.59685 29078 ft 478 kts 207°
2026-05-05 21:24 40.56356 27.58207 29078 ft 481 kts 191°
2026-05-05 21:24 40.53026 27.57974 29072 ft 479 kts 174°
2026-05-05 21:24 40.46390 27.59038 29082 ft 483 kts 173°
2026-05-05 21:25 40.39727 27.59878 29084 ft 485 kts 175°
2026-05-05 21:25 40.32978 27.60015 29073 ft 486 kts 185°
2026-05-05 21:26 40.26285 27.58780 29083 ft 486 kts 189°
2026-05-05 21:26 40.19598 27.57422 29071 ft 486 kts 189°
2026-05-05 21:27 40.12902 27.56111 29079 ft 487 kts 189°
2026-05-05 21:27 40.06663 27.54917 29083 ft 488 kts 189°
2026-05-05 21:28 39.99935 27.53636 29091 ft 489 kts 189°
2026-05-05 21:28 39.93182 27.52350 29082 ft 491 kts 189°
2026-05-05 21:29 39.86519 27.51082 29099 ft 492 kts 190°
2026-05-05 21:29 39.79727 27.49792 28941 ft 494 kts 190°
2026-05-05 21:30 39.76324 27.49146 28389 ft 493 kts 190°
2026-05-05 21:30 39.72956 27.48509 27859 ft 487 kts 190°
2026-05-05 21:30 39.69619 27.47879 27324 ft 482 kts 190°
2026-05-05 21:30 39.66323 27.47262 26802 ft 476 kts 190°
2026-05-05 21:31 39.64659 27.46951 26539 ft 473 kts 190°
2026-05-05 21:32 39.63070 27.46656 26301 ft 470 kts 190°
2026-05-05 21:32 39.59847 27.46056 25799 ft 466 kts 190°
2026-05-05 21:33 39.56657 27.45462 25310 ft 461 kts 190°
2026-05-05 21:33 39.53489 27.44872 24825 ft 457 kts 190°
2026-05-05 21:33 39.50351 27.44288 24389 ft 453 kts 190°
2026-05-05 21:33 39.47291 27.43719 23977 ft 449 kts 190°
2026-05-05 21:34 39.44207 27.43145 23539 ft 448 kts 189°
2026-05-05 21:34 39.41119 27.42572 23053 ft 448 kts 190°
2026-05-05 21:34 39.38031 27.41998 22585 ft 448 kts 190°
2026-05-05 21:34 39.34992 27.41230 22116 ft 443 kts 196°
2026-05-05 21:35 39.32044 27.40169 21700 ft 438 kts 199°
2026-05-05 21:35 39.29148 27.39004 21291 ft 434 kts 200°
2026-05-05 21:35 39.28173 27.38605 21151 ft 433 kts 200°
2026-05-05 21:35 39.25360 27.37463 20760 ft 431 kts 200°
2026-05-05 21:36 39.22499 27.36329 20353 ft 428 kts 199°
2026-05-05 21:36 39.20576 27.35584 20099 ft 426 kts 199°
2026-05-05 21:36 39.19841 27.35303 20011 ft 425 kts 199°
2026-05-05 21:37 39.17374 27.34371 19716 ft 419 kts 199°
2026-05-05 21:37 39.15120 27.33528 19435 ft 414 kts 199°
2026-05-05 21:38 39.12374 27.32506 19076 ft 408 kts 199°
2026-05-05 21:38 39.09668 27.31500 18738 ft 402 kts 199°
2026-05-05 21:38 39.07933 27.30856 18506 ft 398 kts 199°
2026-05-05 21:39 39.06901 27.30472 18383 ft 397 kts 199°
2026-05-05 21:39 39.04257 27.29489 17970 ft 393 kts 199°
2026-05-05 21:39 39.01643 27.28517 17575 ft 390 kts 199°
2026-05-05 21:39 38.99081 27.27565 17172 ft 387 kts 198°
2026-05-05 21:40 38.96473 27.26597 16784 ft 383 kts 198°
2026-05-05 21:40 38.93925 27.25652 16403 ft 380 kts 198°
2026-05-05 21:40 38.91428 27.24725 16010 ft 377 kts 198°
2026-05-05 21:40 38.88888 27.23785 15657 ft 373 kts 198°
2026-05-05 21:41 38.86407 27.23105 15278 ft 369 kts 185°
2026-05-05 21:41 38.83837 27.23091 14965 ft 371 kts 179°
2026-05-05 21:41 38.81243 27.23204 14643 ft 375 kts 179°
2026-05-05 21:41 38.78629 27.23300 14320 ft 377 kts 179°
2026-05-05 21:42 38.76011 27.23362 13979 ft 376 kts 180°
2026-05-05 21:42 38.73396 27.23397 13626 ft 375 kts 180°
2026-05-05 21:42 38.70798 27.23421 13255 ft 371 kts 180°
2026-05-05 21:42 38.68231 27.23430 12862 ft 364 kts 182°
2026-05-05 21:43 38.65769 27.22936 12484 ft 356 kts 198°
2026-05-05 21:43 38.63425 27.21990 12130 ft 351 kts 199°
2026-05-05 21:43 38.61885 27.21382 11908 ft 349 kts 199°
2026-05-05 21:43 38.59563 27.20519 11557 ft 344 kts 197°
2026-05-05 21:44 38.57302 27.19712 11174 ft 331 kts 197°
2026-05-05 21:44 38.55081 27.19068 10859 ft 324 kts 185°
2026-05-05 21:44 38.52868 27.19373 10603 ft 317 kts 166°
2026-05-05 21:44 38.50730 27.20048 10362 ft 315 kts 165°
2026-05-05 21:45 38.48617 27.20712 10116 ft 311 kts 165°
2026-05-05 21:45 38.46533 27.21358 9853 ft 307 kts 165°
2026-05-05 21:45 38.44473 27.21990 9593 ft 302 kts 165°
2026-05-05 21:45 38.42440 27.22609 9322 ft 299 kts 165°
2026-05-05 21:46 38.40427 27.23218 9069 ft 296 kts 166°
2026-05-05 21:46 38.38434 27.23819 8798 ft 292 kts 166°
2026-05-05 21:46 38.36465 27.24411 8534 ft 289 kts 166°
2026-05-05 21:46 38.34515 27.24996 8259 ft 286 kts 166°
2026-05-05 21:47 38.32593 27.25571 8017 ft 280 kts 166°
2026-05-05 21:47 38.30733 27.26129 7734 ft 269 kts 166°
2026-05-05 21:47 38.28947 27.26663 7458 ft 259 kts 166°
2026-05-05 21:47 38.27214 27.27181 7252 ft 253 kts 166°
2026-05-05 21:48 38.25519 27.27688 7037 ft 247 kts 166°
2026-05-05 21:48 38.23862 27.28183 6834 ft 242 kts 165°
2026-05-05 21:48 38.22250 27.28665 6705 ft 235 kts 166°
2026-05-05 21:48 38.20657 27.29141 6535 ft 237 kts 166°
2026-05-05 21:49 38.19048 27.29622 6353 ft 238 kts 166°
2026-05-05 21:49 38.17464 27.30095 6149 ft 235 kts 166°
2026-05-05 21:49 38.15869 27.30571 5947 ft 230 kts 166°
2026-05-05 21:49 38.14353 27.31023 5711 ft 224 kts 166°
2026-05-05 21:50 38.12852 27.31470 5512 ft 218 kts 166°
2026-05-05 21:50 38.11413 27.31898 5332 ft 208 kts 166°
2026-05-05 21:50 38.10016 27.32313 5098 ft 204 kts 167°
2026-05-05 21:50 38.08625 27.32260 4862 ft 202 kts 204°
2026-05-05 21:51 38.07603 27.31142 4752 ft 195 kts 244°
2026-05-05 21:51 38.07140 27.29526 4681 ft 197 kts 259°
2026-05-05 21:51 38.06816 27.27819 4494 ft 201 kts 260°
2026-05-05 21:51 38.06501 27.26097 4239 ft 199 kts 259°
2026-05-05 21:52 38.06708 27.22911 3769 ft 181 kts 313°
2026-05-05 21:52 38.07713 27.21956 3646 ft 183 kts 339°
2026-05-05 21:52 38.08949 27.21509 3532 ft 186 kts 347°
2026-05-05 21:53 38.10209 27.21144 3351 ft 185 kts 348°
2026-05-05 21:53 38.11461 27.20785 3144 ft 183 kts 348°
2026-05-05 21:53 38.12704 27.20425 2965 ft 183 kts 348°
2026-05-05 21:53 38.13940 27.20064 2793 ft 181 kts 348°
2026-05-05 21:54 38.15169 27.19701 2608 ft 181 kts 348°
2026-05-05 21:54 38.16356 27.19347 2433 ft 169 kts 348°
2026-05-05 21:54 38.17474 27.19012 2237 ft 162 kts 348°
2026-05-05 21:54 38.18563 27.18687 2070 ft 161 kts 348°
2026-05-05 21:55 38.19657 27.18361 1926 ft 160 kts 347°
2026-05-05 21:55 38.20713 27.18043 1743 ft 151 kts 348°
2026-05-05 21:55 38.21693 27.17749 1591 ft 140 kts 347°
2026-05-05 21:55 38.22659 27.17460 1459 ft 145 kts 347°
2026-05-05 21:56 38.23648 27.17162 1276 ft 146 kts 347°
2026-05-05 21:56 38.24554 27.16891 1043 ft 146 kts 347°
2026-05-05 21:56 38.25541 27.16595 832 ft 145 kts 346°
2026-05-05 21:56 38.26517 27.16300 663 ft 147 kts 346°
2026-05-05 21:57 38.27532 27.15995 490 ft 149 kts 346°
2026-05-05 21:57 38.28505 27.15701 417 ft 136 kts 346°
2026-05-05 21:57 38.29282 27.15464 414 ft 89 kts 346°
2026-05-05 21:57 38.29713 27.15335 420 ft 42 kts 347°
2026-05-05 21:58 38.29936 27.15269 412 ft 15 kts 347°
2026-05-05 21:58 38.29981 27.15199 413 ft 12 kts 267°
2026-05-05 21:58 38.29962 27.15077 412 ft 16 kts 257°
2026-05-05 21:58 38.29927 27.14970 406 ft 11 kts 208°
2026-05-05 21:59 38.29850 27.14978 411 ft 11 kts 168°
2026-05-05 21:59 38.29770 27.15002 411 ft 13 kts 166°
2026-05-05 21:59 38.29680 27.15029 408 ft 14 kts 167°
2026-05-05 21:59 38.29565 27.15064 409 ft 20 kts 167°
2026-05-05 22:00 38.29418 27.15108 411 ft 22 kts 166°
2026-05-05 22:00 38.29269 27.15153 410 ft 22 kts 166°
2026-05-05 22:00 38.29135 27.15193 408 ft 19 kts 167°
2026-05-05 22:00 38.29032 27.15231 407 ft 9 kts 143°
2026-05-05 22:01 38.28995 27.15296 411 ft 9 kts 147°
2026-05-05 22:01 38.28940 27.15296 410 ft 7 kts 224°
2026-05-05 22:01 38.28924 27.15235 417 ft 7 kts 256°
2026-05-05 22:01 38.28919 27.15209 413 ft 0 kts 257°